This is the latest recevied weather packets stored in our database for station/object KO4ZGL-13. If no packets are shown the sender has not sent any weather packets the latest 10 day(s).
| Time | Temp. | Humidity | Pressure | Rain* | Wind** | Luminosity | Snow |
|---|---|---|---|---|---|---|---|
| 1788614749 | 26.11° C | 99% | 1014.9 hPa | 0 mm | - | 379 W/m² | - |
| 1788614444 | 26.67° C | 99% | 1014.8 hPa | 0 mm | - | 104 W/m² | - |
| 1788614139 | 26.11° C | 99% | 1015 hPa | 0 mm | - | 392 W/m² | - |
| 1788613834 | 26.11° C | 99% | 1014.8 hPa | 0 mm | - | 122 W/m² | - |
| 1788613533 | 25.56° C | 99% | 1014.8 hPa | 0 mm | - | 127 W/m² | - |
| 1788613229 | 25.56° C | 99% | 1015 hPa | 0 mm | - | 127 W/m² | - |
| 1788612928 | 25.56° C | 99% | 1014.7 hPa | 0 mm | - | 146 W/m² | - |
| 1788612623 | 25.56° C | 99% | 1014.9 hPa | 0 mm | - | 130 W/m² | - |
| 1788612320 | 25.56° C | 99% | 1015 hPa | 0 mm | - | 116 W/m² | - |
| 1788612015 | 25.56° C | 99% | 1014.8 hPa | 0 mm | - | 107 W/m² | - |
| 1788611711 | 25.56° C | 99% | 1014.6 hPa | 0 mm | - | 131 W/m² | - |
| 1788611407 | 25° C | 99% | 1014.9 hPa | 0 mm | - | 103 W/m² | - |
| 1788611102 | 25° C | 99% | 1014.8 hPa | 0 mm | - | 87 W/m² | - |
| 1788610823 | 24.44° C | 99% | 1014.9 hPa | 0 mm | - | 70 W/m² | - |
| 1788610492 | 24.44° C | 99% | 1014.9 hPa | 0 mm | - | 70 W/m² | - |
| 1788610190 | 23.89° C | 99% | 1014.6 hPa | 0 mm | - | 63 W/m² | - |
| 1788609885 | 23.89° C | 99% | 1014.5 hPa | 0 mm | - | 64 W/m² | - |
| 1788609580 | 23.89° C | 99% | 1014.7 hPa | 0 mm | - | 48 W/m² | - |
| 1788609279 | 23.89° C | 99% | 1014.5 hPa | 0 mm | - | 49 W/m² | - |
| 1788608969 | 23.89° C | 99% | 1014.5 hPa | 0 mm | - | 34 W/m² | - |
| 1788608669 | 23.33° C | 99% | 1014.5 hPa | 0 mm | - | 26 W/m² | - |
| 1788608368 | 23.89° C | 99% | 1014.5 hPa | 0 mm | - | 23 W/m² | - |
| 1788608063 | 23.89° C | 99% | 1014.3 hPa | 0 mm | - | 21 W/m² | - |
| 1788607758 | 23.89° C | 99% | 1014.4 hPa | 0 mm | - | 17 W/m² | - |
| 1788607454 | 23.89° C | 99% | 1014.1 hPa | 0 mm | - | 14 W/m² | - |
* Rain latest hour (hover to see other rain measurements)
** Current wind speed in m/s (hover to see current wind gust speed)